Theta_e
316 316 316 315 315 314 314 313 313 312 312 312 312 312 312 312 312 311 311 311 312 312 312 312 312 311 310 310 308 306 305 305 304 301 300 300 300 300 300 299 299 298
314 315 315 315 314 314 313 313 313 312 312 312 312 312 313 312 312 312 312 311 311 311 311 311 311 312 311 309 308 305 305 304 302 302 301 301 301 301 300 300 299 299
313 314 314 314 314 314 313 313 313 313 312 312 312 312 312 312 312 312 312 312 312 311 311 311 310 312 311 309 307 305 304 303 302 302 302 301 301 300 300 300 299 299
313 313 313 314 314 314 313 313 312 312 312 312 312 312 312 312 312 312 312 312 312 311 311 311 310 312 311 309 307 305 304 303 303 303 303 302 301 301 300 300 299 299
312 312 313 313 313 313 313 313 312 312 312 312 312 312 312 312 312 312 312 312 312 312 311 311 310 311 310 308 307 305 304 304 303 303 303 302 302 301 300 299 299 299
312 312 312 312 312 312 312 312 312 312 312 312 313 313 312 312 312 312 311 311 311 311 311 311 311 311 310 308 306 304 304 304 303 303 303 303 303 302 300 300 299 299
312 311 311 311 311 311 311 312 311 312 312 312 312 313 313 312 312 311 311 311 311 311 310 310 311 311 309 307 305 304 304 304 303 303 303 303 303 301 300 300 300 300
311 311 311 310 310 310 310 311 311 311 311 311 311 312 312 312 311 310 310 310 309 309 309 310 310 310 308 306 304 304 304 304 303 303 302 303 302 301 300 300 300 300
310 310 310 310 309 309 310 310 310 310 310 310 310 310 310 310 310 309 308 308 308 308 308 309 309 308 307 306 304 304 304 303 303 302 302 302 302 301 300 300 300 300
309 309 309 309 309 309 309 309 310 309 309 309 309 309 308 307 308 308 307 307 306 307 308 308 308 307 306 305 305 305 304 303 302 302 302 302 301 301 300 300 299 299
309 308 307 308 308 308 308 308 308 308 307 307 307 307 307 307 306 306 306 306 305 306 307 307 306 306 306 305 304 304 303 303 302 302 302 301 301 300 300 300 299 299
309 308 307 306 307 307 307 307 306 306 306 306 306 307 306 306 306 305 304 304 305 305 305 305 305 305 305 304 304 303 302 302 302 301 301 300 300 300 299 299 299 299
309 308 307 306 306 306 306 306 305 305 305 305 305 306 305 304 304 304 303 304 304 304 304 304 304 304 304 303 303 302 302 301 301 301 300 299 299 299 299 298 298 298
309 308 307 306 306 306 305 304 304 304 304 304 304 305 305 304 304 303 303 303 303 303 303 303 303 303 302 302 302 301 301 301 301 300 299 299 299 298 298 298 297 297
308 307 306 306 305 305 304 303 303 303 303 303 303 304 304 304 303 303 302 301 301 301 301 301 301 301 301 301 301 301 300 300 300 299 299 298 298 297 297 297 297 297
308 307 306 305 304 303 303 303 302 302 302 302 303 303 303 302 302 302 301 300 300 300 300 300 300 301 301 301 301 300 300 299 299 299 298 298 297 297 297 296 296 296
307 306 305 304 303 302 302 302 301 301 301 301 302 301 301 301 300 300 300 300 300 299 299 299 300 300 300 300 300 300 299 299 298 298 297 297 297 296 296 296 295 294
305 304 303 302 302 301 301 300 300 300 300 300 300 300 300 299 299 299 299 299 299 299 299 299 299 300 300 300 299 299 299 298 298 297 297 296 296 296 295 295 294 293
304 303 302 301 301 300 300 299 299 298 298 299 298 299 298 298 298 298 298 299 299 298 298 298 298 298 299 299 298 298 298 298 297 297 296 296 296 295 294 293 293 292
302 302 301 300 300 299 299 298 298 297 297 298 297 297 296 297 297 297 297 298 298 297 297 297 297 297 298 298 297 297 297 297 297 297 296 295 295 294 293 293 292 291
301 300 300 299 299 298 297 297 297 297 296 296 296 296 296 296 296 296 296 296 296 296 296 296 296 297 297 296 296 296 296 296 296 296 295 294 294 293 293 292 291 290
300 300 299 298 297 297 296 296 296 296 296 295 295 295 295 295 295 294 294 294 294 295 295 295 295 296 296 296 296 296 296 296 296 295 294 293 293 293 292 291 291 290
300 299 298 298 296 296 295 295 296 296 295 295 294 294 294 294 294 293 294 294 294 294 294 294 295 296 296 296 296 296 296 295 294 294 293 293 292 292 291 291 290 290
299 299 298 297 296 296 295 295 295 295 294 294 294 293 293 293 293 293 293 293 293 294 294 295 295 295 295 295 295 295 295 294 294 293 292 292 292 291 291 291 291 290
298 298 297 297 296 296 296 295 295 294 294 293 294 293 293 293 292 292 292 292 293 293 294 294 294 294 294 294 294 294 294 293 293 292 291 291 291 291 291 291 291 290
298 298 297 297 296 296 295 295 294 294 293 292 292 292 292 291 291 291 291 291 291 292 292 292 292 293 293 293 293 293 293 293 292 291 291 290 290 290 290 290 291 290
Wind_Speed
39 37 36 36 36 37 38 39 40 41 42 42 43 44 45 46 45 44 44 42 40 39 39 38 36 34 33 32 32 32 31 31 31 31 31 30 30 29 28 28 27 26
41 39 37 35 34 35 38 39 40 40 41 42 44 45 45 45 45 45 45 42 40 40 39 39 37 35 34 34 34 33 33 32 32 31 31 31 30 30 29 29 27 25
42 41 39 38 36 36 37 38 39 39 40 40 42 43 44 45 45 46 45 43 42 41 40 39 38 35 35 35 35 34 34 33 32 31 31 32 32 32 31 29 27 26
43 43 42 41 40 38 37 38 38 39 40 40 40 41 42 44 45 46 46 45 44 43 41 41 39 36 35 36 36 36 35 33 33 32 33 33 33 32 32 30 29 27
43 43 42 40 40 40 39 39 40 40 40 41 42 42 42 43 44 46 46 45 45 43 43 42 40 37 37 37 37 37 36 34 34 34 35 34 33 32 32 31 31 30
41 41 42 40 40 40 40 41 41 42 42 43 43 43 43 43 44 45 46 46 45 44 44 43 41 39 39 39 38 38 37 36 36 36 35 34 33 33 32 32 32 31
41 42 42 41 40 41 41 42 42 43 44 43 43 44 43 44 44 45 46 46 46 45 45 43 41 40 41 40 40 39 38 37 36 36 35 34 33 34 33 33 32 31
43 42 42 42 41 42 42 42 43 45 45 44 44 44 44 44 45 45 45 45 45 45 45 42 40 41 42 42 42 41 39 38 37 36 35 34 34 34 34 33 32 31
42 42 42 42 43 43 44 44 45 45 45 45 45 45 45 45 46 45 45 45 44 44 44 43 42 44 44 44 43 42 40 39 38 37 36 35 35 34 34 33 33 31
40 42 43 44 44 44 45 46 46 46 46 46 45 45 45 45 45 45 44 44 44 44 44 44 45 46 46 45 44 43 42 40 39 38 37 36 35 34 35 34 34 33
39 41 43 45 46 45 46 46 46 46 47 47 46 46 46 45 44 43 44 45 46 46 46 46 47 47 47 46 45 44 43 41 40 39 37 36 35 35 35 34 34 34
40 41 43 45 46 46 46 47 46 47 47 47 47 47 46 46 45 44 44 46 46 46 46 47 47 47 47 46 46 45 43 42 40 39 38 37 35 34 34 34 35 35
41 43 44 44 45 45 45 46 46 47 48 48 48 48 47 46 46 45 44 45 45 45 46 47 47 47 46 46 46 45 44 43 41 39 38 36 34 34 34 34 34 35
42 43 43 43 42 41 42 43 44 46 47 48 48 48 48 47 46 45 44 44 45 45 45 46 46 46 46 46 46 46 44 43 42 40 39 36 35 34 35 34 35 35
40 40 40 40 39 38 39 41 43 44 45 45 46 46 46 46 45 44 44 43 44 44 45 45 46 47 47 48 47 46 44 43 42 41 40 39 37 36 36 36 36 36
38 38 38 38 38 38 39 41 42 42 42 42 43 44 43 44 45 44 44 44 43 43 44 44 45 47 48 48 47 47 45 43 42 42 42 42 41 39 38 37 36 35
37 37 37 38 38 38 40 41 41 41 42 42 42 42 42 43 44 44 44 44 44 43 44 44 45 46 47 47 47 46 46 45 44 44 44 43 43 42 41 40 38 36
36 36 37 38 39 39 40 41 41 41 41 41 41 42 43 43 44 45 44 44 43 43 43 44 45 46 46 46 46 46 46 45 45 45 44 44 44 43 43 41 39 37
35 36 37 38 39 40 40 40 40 40 41 42 43 43 43 43 43 43 42 43 44 44 44 44 44 45 46 46 46 46 45 45 45 45 45 45 45 44 43 42 40 38
35 36 37 38 39 40 40 40 40 40 40 41 41 41 41 42 42 43 43 44 45 45 44 44 44 45 45 45 45 45 45 45 44 44 44 44 45 44 43 42 42 41
36 37 36 37 38 39 39 40 40 40 39 38 38 39 41 42 42 43 43 43 44 44 43 43 44 45 44 44 44 44 45 44 43 43 42 42 43 43 42 43 43 43
37 37 36 36 37 37 38 39 40 40 40 39 38 38 38 38 38 40 42 42 43 43 43 43 44 44 44 44 44 44 44 43 42 41 41 41 41 41 42 42 42 42
38 38 37 36 37 37 38 39 40 40 41 40 39 37 36 37 38 39 42 43 43 43 43 43 43 44 45 44 44 44 44 43 42 41 41 41 42 43 43 43 42 41
40 39 38 38 39 39 39 40 40 40 41 43 43 41 40 41 41 40 41 43 44 45 45 45 45 45 45 45 45 45 45 45 43 41 40 41 41 42 42 42 42 42
38 40 40 41 42 41 41 41 41 40 40 41 42 42 42 42 41 40 39 40 43 46 46 46 47 47 47 47 46 46 46 46 43 41 39 39 40 40 40 41 42 41
37 40 42 43 44 43 41 40 39 38 39 39 39 38 38 39 39 39 39 40 42 43 44 44 46 47 48 48 48 47 48 47 44 41 40 39 38 38 38 38 39 39
Wind_Direction
204 203 201 198 195 194 192 191 191 190 191 191 192 194 195 197 197 196 197 198 198 198 200 201 199 198 199 200 202 203 203 204 204 203 203 205 205 203 201 202 204 205
203 204 202 199 196 195 194 193 193 192 193 193 194 196 196 196 196 196 197 198 198 199 200 201 199 199 201 201 202 203 204 203 201 199 199 202 203 204 202 201 201 202
201 204 205 202 198 196 195 194 194 194 194 195 195 195 196 196 195 196 197 197 198 200 201 201 199 198 201 202 201 202 203 202 199 197 198 200 202 203 203 203 202 202
199 202 204 204 202 200 197 194 194 194 193 194 195 195 195 195 195 195 197 198 198 199 199 201 199 199 202 203 202 202 203 203 202 199 198 199 201 203 203 203 203 203
196 199 201 202 201 200 198 195 195 194 194 195 196 196 196 195 194 195 196 197 198 198 199 200 199 199 202 203 202 202 203 204 204 200 198 198 200 203 203 201 201 203
194 197 200 200 199 198 196 197 197 195 196 197 197 197 197 196 196 196 196 196 196 197 198 199 198 199 202 203 202 202 203 204 204 201 199 200 201 202 202 200 199 201
194 196 197 198 198 196 196 197 197 197 198 198 198 199 199 199 198 198 198 197 196 197 197 197 198 200 202 202 201 202 203 205 205 203 203 203 201 200 200 199 199 199
193 194 195 195 196 196 196 197 196 197 198 197 198 201 202 202 201 200 198 197 196 195 196 197 200 202 202 201 201 202 203 205 206 205 204 203 201 199 197 196 197 196
192 193 193 194 195 196 197 198 197 197 197 197 199 201 203 203 202 199 197 196 196 195 196 198 201 201 200 200 202 203 204 205 206 206 205 204 201 198 195 194 194 193
191 192 193 194 196 197 198 198 199 198 198 198 199 199 199 199 199 199 197 196 195 195 196 198 199 199 199 201 202 204 205 205 205 206 207 206 203 198 195 193 191 190
192 192 193 195 197 198 199 199 198 197 196 195 195 195 195 195 196 197 198 196 195 195 195 196 197 198 199 200 202 204 205 205 205 206 207 207 204 200 196 193 191 189
194 194 195 195 196 196 197 197 195 193 192 192 192 192 193 193 195 196 197 196 195 195 195 196 198 199 200 200 201 202 203 204 204 205 205 206 204 202 198 194 192 190
196 196 197 197 197 196 196 194 193 192 191 190 190 190 190 191 193 195 196 196 195 195 196 197 198 199 200 200 200 200 201 202 203 203 203 204 204 202 199 197 195 193
198 198 198 199 199 198 195 193 191 190 189 188 188 188 189 191 192 193 194 195 196 196 197 198 198 199 199 200 200 200 201 201 201 201 201 201 202 201 200 199 199 197
198 198 198 199 199 197 194 191 189 188 188 187 187 188 190 192 193 193 192 191 193 196 196 197 198 199 199 199 200 200 200 200 199 198 198 198 198 198 198 200 201 201
197 197 196 195 196 195 191 190 189 187 186 186 187 189 189 190 190 191 190 190 191 193 195 197 198 200 200 201 201 200 199 198 197 197 197 196 195 194 195 198 200 202
195 194 192 191 192 191 189 188 187 186 185 185 186 187 187 188 188 188 189 190 191 192 194 196 199 201 202 202 202 201 199 197 196 195 195 196 195 194 193 195 197 198
194 191 189 189 189 188 186 186 185 184 183 183 184 184 185 186 187 188 188 189 191 193 195 197 200 202 202 202 202 202 200 198 196 194 195 195 196 195 193 192 193 193
191 189 188 187 187 186 185 184 183 182 182 183 184 184 184 185 186 187 188 189 191 193 195 197 199 201 202 202 201 201 201 199 196 195 195 195 195 195 193 191 190 190
191 190 189 187 186 184 182 182 182 183 183 184 184 183 182 184 185 187 189 191 192 193 194 196 197 199 200 200 200 200 201 200 198 196 195 195 195 194 192 191 191 189
193 191 189 186 185 183 181 181 182 183 183 183 183 183 184 185 186 188 189 191 192 193 192 194 196 198 198 198 198 199 200 199 198 196 196 196 195 194 194 194 191 189
196 191 188 186 183 181 181 181 182 183 183 182 183 184 186 187 187 188 189 190 192 192 191 192 194 196 196 196 196 197 197 197 197 197 196 196 196 196 196 195 192 190
198 191 186 183 182 182 182 183 183 183 182 182 181 182 184 187 188 189 190 191 191 192 192 191 192 193 194 194 194 195 195 195 196 196 196 197 198 197 197 195 194 193
196 191 185 182 182 184 185 183 183 183 183 182 181 182 184 187 188 189 191 191 192 193 193 192 191 192 193 193 194 195 196 196 195 195 195 197 197 196 196 196 196 196
194 190 186 184 184 185 185 183 183 183 183 183 183 183 184 186 187 187 188 191 193 194 194 192 191 191 192 193 194 196 197 196 194 193 193 195 195 195 196 197 197 196
195 192 189 186 185 184 183 183 182 181 181 182 182 183 183 183 185 185 186 189 192 194 194 193 191 190 191 193 194 196 197 196 193 193 194 195 195 195 195 196 196 194